Tracking 18987 objects as of 25-Feb-2018
HD Live streaming from Space Station
objects crossing your sky now

FENGYUN 1C DEB

Track FENGYUN 1C DEB now!
10-day predictions


NORAD ID: 39540
Int'l Code: 1999-025EWH
Perigee: 837.0 km
Apogee: 1,513.7 km
Inclination: 106.2 °
Period: 108.7 minutes
Semi major axis: 7546 km
RCS: Unknown
Launch date: May 10, 1999
Source: People's Republic of China (PRC)
Launch site: Taiyaun Space Center, China (TSC)

Note: This is SATELLITE DEBRIS
aabbcc
Your satellite tracking list
Your tracking list is empty




NASA's NSSDC Master Catalog

Two Line Element Set (TLE):
1 39540U 99025EWH 18045.95855417 +.00000594 +00000-0 +92557-3 0  9997
2 39540 106.1883 087.3263 0448368 149.5170 335.5425 13.24335023311614
Source of the keplerian elements: AFSPC